Theta_e
304 303 303 303 304 305 311 317 315 313 308 308 308 305 305 305 304 305 309 308 311 313 315 315 319 318 320 322 325 327 328 331
304 303 302 300 300 302 303 305 308 310 307 304 301 301 300 299 299 299 300 300 302 303 303 305 306 307 307 309 312 317 321 320
304 303 302 301 300 299 299 299 301 302 302 301 301 299 298 298 298 298 298 298 298 299 299 299 300 301 301 304 305 312 313 315
303 302 302 301 300 300 299 298 297 298 298 298 298 297 297 297 297 297 297 297 297 296 297 297 298 298 298 299 301 304 310 309
302 302 302 301 300 300 299 298 297 297 297 296 297 297 298 297 297 296 296 296 296 295 295 296 296 297 297 297 297 301 300 307
301 301 302 301 300 300 299 299 298 297 296 296 296 297 297 296 295 295 295 295 295 295 295 295 296 296 297 296 296 297 298 302
302 302 302 301 301 300 300 299 299 298 297 296 296 296 296 295 295 295 294 294 294 294 294 295 295 295 296 296 296 297 297 301
302 302 301 301 301 300 300 300 299 298 297 297 296 295 295 295 295 294 294 294 294 294 294 294 294 294 294 295 296 297 297 298
302 302 302 302 301 300 300 300 300 299 298 297 296 295 294 294 294 294 294 293 293 293 293 293 293 293 293 294 295 296 296 296
302 301 302 302 301 300 299 299 299 299 297 296 295 294 294 294 294 293 293 292 292 292 292 292 292 293 293 294 293 293 293 292
302 301 301 302 301 300 299 299 298 299 297 296 294 294 294 293 293 292 292 292 292 292 292 292 292 292 292 292 292 292 292 292
302 301 302 301 301 299 298 298 297 298 296 295 294 294 293 293 292 291 291 291 291 291 291 291 291 292 292 292 291 291 290 290
302 301 301 301 300 299 298 298 297 297 296 295 294 294 293 292 291 291 291 291 291 291 291 290 291 291 292 289 289 289 289 289
302 301 300 299 299 298 298 298 297 296 295 294 294 293 293 291 291 291 291 291 291 291 291 290 290 291 290 288 288 288 288 288
302 300 299 298 298 298 297 297 296 295 295 294 293 293 292 291 291 291 291 291 290 290 289 290 289 291 288 288 288 287 288 288
302 300 299 298 298 297 297 297 296 295 294 293 293 292 291 291 291 290 290 290 289 289 289 288 289 289 288 287 287 287 287 288
302 300 298 298 297 297 297 296 295 295 294 293 293 292 291 290 290 290 290 290 289 289 288 288 288 288 287 287 286 287 287 287
301 300 298 298 297 297 296 296 295 295 294 293 292 291 290 290 290 290 290 289 289 289 288 288 288 287 286 286 286 286 286 286
301 300 298 297 297 297 296 295 295 294 293 292 292 290 290 290 290 289 289 289 288 288 288 287 286 286 286 286 285 285 286 285
Wind_Speed
17 24 27 28 28 26 23 23 25 24 26 27 27 27 26 25 25 23 20 20 19 18 18 19 17 18 17 16 15 14 16 15
19 23 26 29 30 30 29 27 19 19 20 21 27 28 26 28 28 26 26 25 25 25 24 22 21 20 22 22 22 19 14 24
13 23 27 29 29 29 30 30 26 24 24 23 19 24 28 27 27 28 28 27 27 26 26 25 24 23 23 24 25 19 14 22
7 17 24 27 27 27 29 29 29 29 26 26 23 23 26 28 30 29 28 28 27 27 25 25 24 25 25 24 23 23 15 15
11 15 21 24 25 26 28 29 30 28 27 29 30 30 24 25 25 24 25 26 26 26 25 24 24 24 25 25 25 20 21 14
10 17 24 22 22 23 25 27 27 27 28 28 29 29 25 24 24 25 24 25 25 25 24 24 24 23 23 23 24 22 21 13
14 21 24 22 21 21 22 23 23 23 25 25 26 25 24 25 24 25 24 23 24 24 23 23 22 22 22 23 21 21 22 16
10 14 20 21 20 19 19 20 21 20 22 23 24 23 22 23 22 23 23 24 24 24 22 22 22 21 20 20 20 21 22 18
10 17 22 22 19 17 18 18 19 17 19 20 20 20 20 21 20 20 21 21 21 21 21 21 22 21 20 19 20 20 17 17
12 18 23 23 21 18 18 19 18 16 17 17 18 17 19 19 19 19 19 19 19 20 22 22 23 23 21 19 20 21 21 23
12 18 24 24 22 20 18 18 18 17 16 15 16 16 16 16 16 18 18 19 20 22 23 23 22 21 20 20 20 21 22 22
14 19 26 25 23 20 19 19 18 18 16 14 14 14 14 15 17 19 20 20 20 21 22 22 22 21 20 22 23 22 23 23
16 22 27 27 25 21 19 19 17 17 15 13 13 12 13 16 18 19 19 19 19 20 22 25 23 22 21 28 26 26 25 25
13 18 20 25 26 22 20 18 19 17 14 12 12 12 14 16 18 18 18 18 19 20 21 26 23 21 25 28 26 27 27 24
15 15 20 23 27 25 22 21 21 18 14 12 12 13 14 15 15 17 18 19 21 24 24 21 23 18 25 27 29 29 25 25
18 16 19 23 27 26 23 23 22 18 15 12 12 11 12 13 15 16 18 20 21 20 21 22 21 17 26 28 31 27 27 26
18 17 22 23 27 28 26 25 22 17 15 13 10 9 11 12 13 15 17 18 19 20 20 21 23 18 24 28 34 27 26 26
20 20 26 27 30 32 30 28 23 18 15 13 10 8 9 11 12 14 17 17 17 18 21 22 20 19 23 29 34 27 26 28
19 25 25 27 33 33 31 27 23 19 16 13 10 8 9 10 11 14 14 16 18 18 18 22 20 19 23 29 33 27 25 29
Wind_Direction
77 79 78 77 77 81 89 104 101 102 97 91 88 78 76 72 66 62 56 50 47 44 43 34 26 19 11 4 1 353 345 347
90 85 84 82 78 79 80 88 103 112 96 87 78 79 71 70 66 61 58 54 52 48 46 40 35 33 25 21 10 5 6 353
95 93 86 81 79 77 78 80 84 90 95 93 94 82 76 71 67 61 56 52 48 45 42 39 35 32 28 28 26 16 7 15
116 94 92 89 86 83 80 80 81 85 92 95 95 85 73 65 60 57 53 51 49 46 43 40 37 33 28 25 23 26 357 5
134 123 104 97 95 91 88 85 81 79 81 83 79 77 73 64 62 59 55 49 46 42 39 38 37 34 31 27 24 22 17 0
150 140 122 114 106 100 93 88 83 80 78 78 77 75 71 63 57 53 50 46 42 36 35 34 33 31 28 24 21 20 20 11
140 140 132 124 116 111 105 98 92 84 78 75 73 70 65 58 51 47 42 40 36 32 30 29 29 25 22 18 15 17 17 17
150 155 146 136 128 120 115 106 99 90 81 74 68 65 60 56 50 43 39 35 30 24 25 26 25 22 19 16 15 13 13 10
171 167 156 147 137 128 119 112 106 98 87 81 73 66 62 57 49 44 40 32 27 23 26 28 25 24 23 23 26 18 2 356
178 171 164 155 150 141 131 124 116 111 98 85 72 64 57 53 46 43 32 31 32 33 35 35 34 33 30 25 14 6 360 354
180 173 165 159 156 145 133 126 117 117 104 88 73 65 57 51 50 38 40 41 39 37 36 34 34 35 32 20 4 354 347 342
178 172 167 161 158 149 138 133 125 124 111 94 76 71 59 57 43 44 45 43 41 40 38 35 35 33 28 7 0 351 345 339
171 165 162 163 160 154 145 140 132 128 117 100 87 76 60 48 47 49 47 45 43 42 40 36 34 32 22 6 356 349 344 339
161 154 160 166 165 161 152 146 140 135 121 106 92 73 61 50 50 48 45 43 41 39 38 33 31 31 10 3 355 347 345 346
162 160 165 169 170 166 157 153 148 140 127 110 94 79 61 58 55 50 46 44 44 44 39 28 33 31 11 4 356 351 350 345
168 165 167 169 171 168 160 155 151 144 128 111 95 85 69 64 56 52 49 52 48 46 37 33 33 24 11 6 359 357 353 349
170 167 166 171 170 168 163 159 154 148 129 113 106 86 73 65 59 53 52 50 46 41 39 30 28 22 8 3 1 355 352 350
171 172 172 172 170 170 167 162 155 145 131 126 120 97 87 71 59 52 47 42 39 37 30 22 20 16 7 3 1 356 349 349
171 170 168 167 173 172 165 159 155 145 138 136 130 112 93 73 58 50 44 39 37 33 24 17 21 15 10 6 359 355 350 349